Probability
0 0 0 0 0 0 0 0 0 0 0 0 0 0 0 0 0 0 0 0 0 0 0 0 0 0 0 0 0 0 0 0 0 0 0 0 0 0 0 0 0 3 0 0
0 0 0 0 0 0 0 0 0 0 0 0 0 0 0 0 0 0 0 0 0 0 0 0 0 0 0 0 0 0 0 0 0 0 0 0 0 0 0 3 0 0 3 0
0 0 0 0 0 0 0 0 0 0 0 0 0 0 0 0 0 0 0 0 0 0 0 0 0 0 0 0 0 0 0 0 0 0 0 0 0 0 0 3 3 0 0 0
0 0 0 0 0 0 0 0 0 0 0 0 0 0 0 0 0 0 0 0 0 0 0 0 0 0 0 0 0 0 0 0 0 0 0 0 0 0 0 0 3 0 0 0
0 0 0 0 0 0 0 0 0 0 0 0 0 0 0 0 0 0 0 0 0 0 0 0 0 0 0 0 0 0 0 0 0 0 0 0 0 0 0 0 0 0 0 0
0 0 0 0 0 0 0 0 0 0 0 0 0 0 0 0 0 0 0 0 0 0 0 0 0 0 0 0 0 0 0 0 0 0 0 0 0 0 0 0 0 0 0 0
0 0 0 0 0 0 0 0 0 0 0 0 0 0 0 0 0 0 0 0 0 0 0 0 0 0 0 0 0 0 0 0 0 0 0 0 0 0 0 0 0 0 0 0
0 0 0 0 0 0 0 0 0 0 0 0 0 0 0 0 0 0 0 0 0 0 0 0 0 0 0 0 0 0 0 0 0 0 0 0 0 0 0 0 0 0 0 0
0 0 0 0 0 0 0 0 0 0 0 0 0 0 0 0 0 0 0 0 0 0 0 0 0 0 0 0 0 0 0 0 0 0 0 0 0 0 3 3 3 3 3 0
0 0 0 0 0 0 0 0 0 0 0 0 0 0 0 0 0 0 0 0 0 0 0 0 0 0 0 0 0 0 0 0 0 0 0 0 0 0 0 0 3 3 3 0
0 0 0 0 0 0 0 0 0 0 0 0 0 0 0 0 0 0 0 0 0 0 0 0 0 0 0 0 0 0 0 0 0 0 0 0 0 0 0 0 0 0 0 0
0 0 0 0 0 0 0 0 0 0 0 0 0 0 0 0 0 0 0 0 0 0 0 0 0 0 0 0 0 0 0 0 0 0 0 0 0 0 0 0 0 0 0 0
0 0 0 0 0 0 0 0 0 0 0 0 0 0 0 0 0 0 0 0 0 0 0 0 0 0 0 0 0 0 0 0 0 0 0 0 0 0 0 0 0 0 0 0
0 0 0 0 0 0 0 0 0 0 0 0 0 0 0 0 0 0 0 0 0 0 0 0 0 0 0 0 0 0 0 0 0 0 0 0 0 0 0 0 0 0 0 0
0 0 0 0 0 0 0 0 0 0 0 0 0 0 0 0 0 0 0 0 0 0 0 0 0 0 0 0 0 0 0 0 0 0 0 0 0 0 0 0 0 0 0 0
0 0 0 0 0 0 0 0 0 0 0 0 0 0 0 0 0 0 0 0 0 0 0 0 0 0 0 0 0 0 0 0 0 0 0 0 0 0 0 0 0 0 0 0
0 0 0 0 0 0 0 0 0 0 0 0 0 0 0 0 0 0 0 0 0 0 0 0 0 0 0 0 0 0 0 0 0 0 0 0 0 0 0 0 0 0 0 0
0 0 0 0 0 0 0 0 0 0 0 0 0 0 0 0 0 0 0 0 0 0 0 0 0 0 0 0 0 0 0 0 0 0 0 0 0 0 0 0 0 0 0 0
0 0 0 0 0 0 0 0 0 0 0 0 0 0 0 0 0 0 0 0 0 0 0 0 0 0 0 0 0 0 0 0 0 0 0 0 0 0 0 0 0 0 0 0
0 0 0 0 0 0 0 0 0 0 0 0 0 0 0 0 0 0 0 0 0 0 0 0 0 0 0 0 0 0 0 0 0 0 0 0 0 0 0 0 0 0 0 0
0 0 0 0 0 0 0 0 0 0 0 0 0 0 0 0 0 0 0 0 0 0 0 0 0 0 0 0 0 0 0 0 0 0 0 0 0 0 0 0 0 0 0 0
0 0 0 0 0 0 0 0 0 0 0 0 0 0 0 0 0 0 0 0 0 0 0 0 0 0 0 0 0 0 0 0 0 0 0 0 0 0 0 0 0 0 0 0
0 0 0 0 0 0 0 0 0 0 0 0 0 0 0 0 0 0 0 0 0 0 0 0 0 0 0 0 0 0 0 0 0 0 0 0 0 0 0 0 0 0 0 0
0 0 0 0 0 0 0 0 0 0 0 0 0 0 0 0 0 0 0 0 0 0 0 0 0 0 0 0 0 0 0 0 0 0 0 0 0 0 0 0 0 0 0 0
0 0 0 0 0 0 0 0 0 0 0 0 0 0 0 0 0 0 0 0 0 0 0 0 0 0 0 0 0 0 0 0 0 0 0 0 0 0 0 0 0 0 0 0
0 0 0 0 0 0 0 0 0 0 0 0 0 0 0 0 0 0 0 0 0 0 0 0 0 0 0 0 0 0 0 0 0 0 0 0 0 0 0 0 0 0 0 0
Height
5911 5913 5911 5910 5908 5906 5903 5900 5897 5894 5890 5886 5883 5880 5877 5873 5869 5864 5860 5856 5852 5848 5844 5841 5837 5835 5832 5830 5828 5826 5824 5823 5821 5820 5819 5819 5819 5820 5822 5824 5827 5830 5833 5836
5910 5909 5908 5907 5905 5902 5900 5897 5893 5890 5886 5882 5879 5876 5873 5869 5864 5859 5855 5851 5846 5842 5838 5834 5830 5827 5825 5823 5820 5818 5816 5814 5813 5811 5810 5809 5809 5809 5810 5812 5815 5818 5822 5825
5907 5907 5905 5904 5902 5899 5896 5893 5890 5886 5882 5878 5875 5872 5869 5865 5860 5856 5851 5846 5842 5837 5833 5829 5825 5822 5819 5816 5814 5811 5809 5807 5805 5803 5802 5800 5800 5800 5800 5802 5804 5807 5810 5814
5904 5903 5902 5900 5898 5896 5893 5890 5886 5882 5879 5875 5872 5869 5865 5861 5857 5852 5847 5843 5838 5833 5829 5825 5821 5818 5814 5811 5809 5806 5803 5801 5798 5796 5794 5793 5792 5791 5792 5792 5794 5796 5800 5803
5901 5900 5899 5897 5895 5893 5890 5886 5883 5879 5876 5873 5869 5866 5863 5858 5853 5849 5845 5840 5835 5831 5826 5822 5818 5815 5811 5808 5805 5802 5799 5796 5793 5790 5788 5786 5785 5784 5784 5784 5785 5787 5790 5793
5899 5898 5897 5895 5893 5890 5887 5884 5880 5877 5874 5872 5868 5864 5861 5856 5852 5848 5843 5839 5834 5830 5825 5821 5817 5813 5810 5806 5802 5798 5795 5792 5789 5786 5783 5781 5780 5778 5777 5777 5778 5779 5781 5784
5897 5897 5895 5893 5891 5888 5885 5883 5880 5876 5873 5870 5866 5862 5860 5855 5851 5847 5843 5839 5834 5830 5825 5821 5817 5813 5809 5805 5801 5797 5793 5789 5786 5783 5780 5778 5775 5773 5772 5771 5771 5772 5774 5776
5896 5896 5894 5892 5890 5887 5884 5881 5879 5876 5872 5869 5865 5861 5859 5855 5851 5847 5843 5839 5835 5830 5826 5822 5818 5813 5809 5804 5800 5796 5792 5788 5784 5781 5777 5775 5772 5770 5768 5767 5767 5767 5768 5769
5895 5895 5893 5891 5888 5886 5883 5880 5878 5875 5871 5868 5865 5862 5859 5855 5851 5847 5843 5839 5835 5831 5827 5823 5818 5814 5809 5805 5801 5797 5792 5788 5783 5780 5776 5773 5771 5768 5766 5765 5764 5763 5763 5763
5894 5893 5892 5890 5888 5886 5883 5880 5878 5875 5872 5869 5866 5862 5860 5856 5852 5848 5844 5841 5837 5833 5828 5824 5820 5815 5810 5806 5801 5797 5793 5789 5785 5781 5777 5774 5771 5768 5765 5763 5762 5760 5760 5759
5894 5893 5892 5891 5889 5886 5884 5881 5878 5875 5872 5870 5866 5866 5861 5857 5854 5850 5846 5843 5839 5835 5830 5826 5821 5817 5812 5807 5803 5798 5794 5790 5786 5782 5778 5775 5771 5768 5766 5763 5761 5759 5758 5757
5894 5894 5892 5891 5889 5886 5884 5882 5879 5877 5874 5871 5868 5869 5862 5859 5855 5852 5848 5845 5841 5837 5833 5828 5824 5819 5814 5810 5805 5801 5796 5792 5788 5784 5780 5776 5773 5770 5766 5763 5761 5759 5757 5755
5894 5894 5893 5892 5891 5888 5885 5882 5880 5878 5875 5872 5870 5870 5864 5861 5857 5854 5850 5847 5843 5839 5835 5831 5826 5822 5817 5813 5808 5804 5799 5795 5790 5786 5782 5778 5774 5771 5767 5764 5761 5758 5756 5754
5895 5894 5894 5893 5890 5888 5886 5884 5881 5879 5876 5874 5872 5869 5866 5863 5859 5856 5853 5849 5846 5842 5838 5833 5829 5824 5820 5816 5811 5806 5802 5797 5793 5789 5784 5780 5776 5772 5769 5765 5762 5759 5756 5753
5896 5895 5894 5893 5891 5889 5887 5885 5882 5880 5878 5876 5874 5871 5868 5865 5862 5858 5855 5851 5848 5844 5840 5836 5832 5827 5823 5819 5814 5810 5805 5800 5796 5791 5787 5783 5779 5774 5770 5767 5763 5759 5756 5753
5896 5896 5895 5894 5892 5890 5888 5886 5883 5881 5879 5877 5875 5873 5870 5867 5863 5860 5857 5853 5850 5846 5842 5838 5834 5830 5826 5822 5817 5813 5808 5804 5799 5795 5790 5786 5781 5777 5772 5768 5764 5760 5756 5753
5897 5896 5895 5894 5893 5891 5890 5887 5885 5883 5881 5878 5876 5874 5871 5868 5865 5862 5859 5855 5852 5849 5845 5841 5837 5833 5829 5825 5820 5816 5811 5807 5802 5798 5793 5789 5784 5779 5775 5771 5766 5761 5757 5753
5897 5897 5896 5895 5895 5893 5893 5888 5886 5884 5882 5879 5877 5875 5872 5869 5866 5863 5860 5857 5854 5850 5847 5843 5839 5835 5832 5828 5823 5819 5815 5810 5806 5801 5796 5792 5787 5782 5777 5773 5768 5764 5759 5755
5898 5897 5896 5895 5894 5893 5892 5889 5887 5885 5883 5881 5878 5876 5873 5870 5867 5865 5862 5858 5855 5852 5849 5845 5841 5838 5834 5830 5826 5822 5818 5814 5809 5804 5800 5795 5790 5785 5781 5776 5771 5766 5762 5758
5897 5896 5896 5895 5893 5892 5892 5890 5887 5886 5884 5881 5879 5877 5874 5871 5869 5867 5863 5860 5857 5854 5850 5847 5843 5840 5836 5833 5829 5825 5821 5817 5812 5808 5803 5798 5794 5789 5784 5779 5775 5770 5766 5761
5895 5895 5894 5893 5892 5891 5891 5889 5888 5887 5885 5882 5879 5877 5874 5872 5870 5867 5864 5861 5858 5855 5852 5848 5845 5842 5838 5835 5831 5827 5824 5820 5816 5811 5807 5802 5797 5793 5788 5783 5779 5774 5769 5765
5893 5892 5892 5891 5890 5892 5889 5887 5887 5885 5883 5881 5879 5877 5875 5872 5870 5867 5864 5861 5859 5856 5852 5849 5846 5843 5840 5836 5833 5830 5826 5822 5818 5814 5810 5806 5801 5797 5792 5788 5783 5778 5774 5770
5890 5890 5889 5889 5890 5887 5886 5885 5884 5883 5881 5879 5878 5876 5874 5872 5869 5867 5864 5862 5859 5856 5853 5850 5847 5844 5841 5838 5834 5831 5828 5824 5821 5817 5813 5809 5805 5801 5796 5792 5787 5783 5779 5774
5885 5885 5885 5885 5885 5884 5883 5882 5881 5879 5878 5877 5875 5874 5872 5870 5868 5866 5863 5861 5858 5856 5853 5850 5847 5844 5841 5838 5835 5832 5829 5826 5823 5819 5816 5812 5808 5805 5800 5796 5792 5788 5783 5779
5881 5881 5881 5881 5881 5880 5879 5878 5877 5876 5874 5873 5872 5870 5869 5867 5866 5864 5861 5859 5857 5854 5852 5849 5847 5844 5841 5839 5836 5833 5830 5827 5824 5821 5818 5814 5811 5808 5804 5800 5796 5792 5788 5784
5875 5877 5877 5877 5876 5876 5875 5873 5872 5871 5870 5869 5868 5866 5865 5864 5862 5860 5858 5856 5854 5852 5850 5848 5845 5843 5840 5838 5835 5833 5830 5827 5824 5822 5819 5816 5813 5810 5806 5803 5799 5796 5792 5789
Wind_Speed
16 15 16 17 18 19 21 23 26 28 29 30 30 29 27 27 27 26 27 28 29 29 30 30 29 29 29 29 29 30 31 33 33 34 35 36 37 37 38 37 37 37 37 37
14 14 15 15 16 18 20 23 25 27 28 28 27 26 25 24 23 23 24 24 25 26 26 26 26 26 26 26 27 27 28 29 29 30 31 33 34 35 35 36 37 37 37 37
12 12 13 14 15 18 20 22 23 24 25 25 25 23 22 20 20 20 20 21 23 23 23 23 23 22 23 23 23 23 24 24 25 26 27 28 29 31 32 33 34 35 36 36
10 10 12 13 15 17 19 20 21 22 22 22 22 20 18 18 18 19 20 21 22 22 21 20 20 19 19 19 19 19 20 20 21 22 23 25 26 28 29 30 31 32 32 33
8 10 11 13 15 16 17 18 18 19 18 18 18 17 17 17 19 20 21 21 22 22 20 19 17 17 17 16 16 16 17 17 18 19 19 20 21 23 25 26 28 29 30 31
7 9 10 12 13 14 15 16 16 16 15 14 14 15 17 18 19 20 20 20 21 21 20 18 17 16 16 16 15 15 16 16 16 15 16 16 17 18 20 22 24 26 28 29
5 7 8 9 11 12 13 13 13 13 13 13 13 14 16 18 18 18 18 19 19 19 19 18 18 17 17 17 17 16 16 15 14 14 14 13 13 14 14 16 18 21 24 26
2 3 5 7 9 11 12 13 13 13 14 14 14 15 16 16 16 17 17 17 18 18 18 18 18 18 18 17 17 17 16 16 14 13 13 12 11 10 10 11 13 15 18 21
2 2 5 7 9 11 12 13 13 13 14 14 15 14 15 15 16 17 17 18 18 18 18 18 19 19 18 18 18 17 17 17 15 14 13 12 10 10 8 7 8 10 12 15
4 5 7 8 9 11 12 12 13 13 14 14 15 15 15 15 16 17 18 18 18 19 19 19 20 20 19 18 18 17 17 17 16 15 14 12 12 10 8 7 7 7 9 11
6 6 7 8 9 10 11 12 13 14 14 15 15 15 15 15 16 17 18 19 19 20 21 21 20 21 21 21 20 19 18 19 18 18 17 14 13 12 10 9 7 7 7 8
6 7 7 8 9 10 11 12 13 14 14 15 15 15 15 15 16 17 18 18 19 21 21 21 21 21 21 22 22 21 20 19 19 19 18 16 15 14 13 11 10 9 7 7
7 7 7 8 9 11 11 12 13 14 14 14 14 14 15 16 16 17 18 18 19 20 21 21 22 22 22 22 22 22 21 21 20 20 19 18 16 16 15 14 13 11 9 7
8 7 8 9 10 10 11 11 12 13 14 13 13 14 15 16 16 17 17 17 18 20 20 21 21 22 22 22 23 23 22 22 22 21 20 19 18 17 16 15 14 13 11 9
8 7 7 8 9 10 11 11 12 13 13 13 13 13 14 15 16 17 17 17 18 19 20 21 22 22 22 22 22 23 23 23 23 23 22 21 20 18 17 17 16 15 13 11
8 7 7 7 8 9 10 11 11 12 12 13 13 13 13 14 15 16 17 17 18 18 19 20 21 22 22 22 23 23 23 23 23 23 23 23 22 21 20 19 18 17 15 14
6 7 7 7 7 8 9 10 10 11 11 12 12 13 13 13 15 15 16 17 17 18 18 19 20 21 22 22 23 23 23 23 23 23 23 23 23 22 21 21 20 18 17 16
4 5 6 6 6 7 8 9 10 10 11 11 12 12 13 13 14 15 16 16 17 17 17 18 19 20 21 21 22 23 23 23 23 24 24 24 23 23 22 22 21 21 19 18
2 3 4 5 5 6 7 8 8 9 10 11 11 11 12 13 14 14 15 16 16 17 17 17 18 19 19 20 21 22 23 23 23 24 24 25 24 24 23 23 22 22 21 20
1 1 2 3 4 5 6 7 8 8 9 10 11 11 12 12 13 13 14 15 15 16 16 16 17 18 18 19 19 20 21 22 23 24 24 25 25 24 24 23 23 22 22 22
4 3 3 3 4 4 5 6 6 7 8 9 10 10 11 12 12 12 13 13 14 14 15 15 16 16 17 18 18 19 19 20 21 22 24 25 25 24 24 24 24 23 23 23
7 6 6 6 6 6 6 6 6 7 8 9 9 10 10 11 12 12 12 12 13 13 14 14 14 15 15 16 16 17 18 18 19 20 22 23 23 24 24 24 24 24 24 23
10 10 9 9 9 9 9 9 8 8 9 9 10 10 10 11 11 12 12 12 12 13 13 13 14 14 14 15 15 15 16 16 17 18 19 20 21 22 23 24 24 24 24 24
13 13 12 12 11 11 11 11 12 11 11 11 11 11 11 12 12 12 12 13 13 13 13 13 13 13 14 14 14 14 14 14 15 16 17 17 18 19 21 22 23 23 23 23
17 16 15 14 14 13 14 14 14 14 14 14 14 13 13 13 13 14 14 14 13 13 13 14 14 13 13 13 13 13 13 13 13 14 14 15 15 16 17 19 20 21 21 21
20 18 17 16 16 16 16 16 16 16 16 16 16 16 16 15 15 15 15 15 15 14 14 14 14 14 14 13 13 13 13 12 12 12 12 13 13 14 14 15 16 17 19 19
Wind_Direction
258 270 279 287 295 300 306 310 311 311 310 310 312 313 316 317 316 312 309 307 306 304 302 299 295 291 288 285 283 282 280 278 276 274 272 270 268 266 263 260 256 254 253 253
262 272 282 292 299 304 308 308 308 308 309 311 314 316 318 320 318 316 313 312 311 310 307 305 301 297 294 291 289 288 285 282 279 277 274 271 269 267 263 259 255 253 252 250
266 276 287 296 301 304 308 308 309 310 311 313 317 320 323 324 324 324 324 323 322 320 316 312 310 306 304 301 297 294 291 287 284 281 278 274 271 268 264 260 256 253 251 249
272 283 293 300 304 309 311 313 314 314 316 317 321 325 331 335 336 337 337 336 335 334 330 325 321 318 315 311 306 302 298 295 292 288 282 278 274 270 266 261 256 253 250 247
277 289 299 305 310 315 317 320 321 322 323 322 326 331 341 346 348 347 346 345 345 344 343 341 337 334 331 327 322 316 311 306 303 297 293 286 279 273 268 262 257 253 249 246
282 294 303 312 320 326 329 331 332 332 330 331 338 343 351 354 352 352 354 353 354 354 356 355 352 350 348 345 342 336 329 321 316 309 304 299 289 279 271 264 258 253 250 246
299 307 319 328 334 340 344 344 344 344 347 352 356 358 359 357 356 357 359 359 360 0 1 1 1 0 358 355 351 347 342 338 331 324 320 312 304 293 280 268 260 255 251 247
311 327 338 342 351 357 360 2 2 3 6 8 9 10 7 6 5 5 4 5 6 6 6 7 7 6 5 4 3 0 355 351 347 342 338 330 325 316 297 280 267 260 253 247
96 32 10 8 10 11 15 18 17 17 18 18 20 22 20 19 18 16 14 14 12 12 12 10 8 8 8 8 8 7 6 4 3 1 359 353 343 336 324 303 281 270 261 253
69 46 29 23 23 25 27 27 26 25 23 25 27 30 30 31 28 26 24 23 22 21 19 16 14 14 13 12 12 12 13 15 16 13 9 4 1 354 345 331 312 287 272 260
75 58 43 34 34 36 36 35 34 35 32 31 34 37 35 35 32 31 31 29 28 27 24 23 24 24 24 23 23 23 22 22 23 22 20 20 17 14 10 2 347 331 296 269
82 69 56 46 45 48 48 46 42 39 37 38 40 41 38 37 34 34 33 31 30 28 27 27 27 27 28 27 27 27 27 26 26 25 26 28 27 23 20 12 2 348 329 300
87 77 68 57 53 53 54 51 48 45 43 42 42 41 39 37 35 34 33 32 30 28 28 29 30 29 29 29 29 29 30 29 29 30 29 28 26 24 22 18 13 7 354 339
88 80 69 60 57 57 56 52 50 47 46 47 44 41 38 36 35 33 32 30 28 28 29 30 30 29 29 30 30 30 30 29 29 29 28 27 25 22 19 17 15 12 6 357
83 76 69 62 59 57 56 54 52 51 49 48 44 40 37 36 34 32 30 29 29 28 29 30 30 30 29 29 29 30 31 31 31 31 30 29 27 25 23 21 18 16 14 9
79 71 65 60 55 53 54 54 54 54 51 46 41 38 34 33 30 30 29 28 27 28 28 28 29 29 28 28 29 30 31 32 32 31 31 30 29 28 26 24 21 19 17 13
77 67 59 53 47 46 49 48 48 47 44 39 35 33 31 29 28 29 27 25 25 26 27 28 28 28 28 28 30 31 31 30 30 30 29 28 28 27 26 24 23 21 19 17
75 65 58 51 45 40 42 42 42 40 38 34 31 29 28 28 29 29 27 25 24 24 26 27 27 28 28 29 30 31 31 29 29 28 28 28 27 27 26 26 26 26 25 23
73 58 50 43 38 37 35 35 35 34 34 32 29 27 25 25 27 27 26 25 23 23 24 26 28 28 28 28 29 29 30 30 30 29 28 28 28 28 29 29 30 30 29 28
272 357 19 21 18 18 23 24 24 25 25 21 21 20 20 20 20 21 20 21 21 21 22 24 26 26 26 26 26 27 28 28 29 29 29 29 30 31 32 32 33 33 32 33
270 284 300 314 327 341 349 357 2 4 9 10 9 9 8 9 10 11 14 14 15 16 18 20 22 23 23 23 23 24 24 25 26 27 28 29 31 32 33 34 35 34 35 36
269 276 282 288 296 304 313 321 329 337 341 345 349 353 354 355 357 358 359 1 3 6 9 12 14 16 17 18 19 20 21 22 24 26 27 29 31 32 34 34 36 37 38 39
264 268 272 277 284 291 296 302 308 314 318 321 325 331 336 339 342 345 346 347 350 354 358 1 4 6 8 11 12 14 16 18 20 23 25 28 30 32 34 35 37 38 40 42
263 266 269 273 277 284 290 294 297 300 304 308 311 314 317 321 325 329 333 336 338 342 346 349 352 355 358 1 3 6 8 10 14 18 22 25 27 29 32 34 36 38 40 42
262 267 272 276 280 283 287 291 294 295 297 299 301 304 307 308 309 313 317 321 324 327 331 335 338 341 345 348 352 355 358 1 4 9 14 18 21 24 27 31 34 36 39 41
267 270 273 276 280 281 283 284 287 289 291 292 294 296 298 299 301 302 304 307 310 313 316 319 323 326 329 333 337 341 345 348 352 356 0 5 10 15 19 23 28 33 37 39